www.pogodaiklimat.ru

Погода и климат >> Архив погоды >> Австрия >> Цельтвег


ПОГОДА в Цельтвеге

  • Прогноз погоды в Цельтвеге
  • Монитор погоды в Цельтвеге

АРХИВ ПОГОДЫ в Цельтвеге

Время (UTC), дата Ветер
(напр.,м/с)
 
Видим.   Явления Облачность Т
(С)
Тd
(С)
f
(%)
Тe
(С)
Тes
(С)
Комфортность P
(гПа)
Po
(гПа)
Тmin
(С)
Tmax
(С)
R
(мм)
R24
(мм)
S
(см)
15 14.07 З 6 30 км слаб. ливневой дождь 8/6 1500 м
[Cu med, cong Ac cuf]
+16.9 +11.7 71 +16 +17 1013.8 936.3
18 14.07 30 км {ливн. осадки, дождь} 8/1 1500 м
[Sc Ac cuf]
+18.8 +8.6 51 1013.0 936.1 +20.9 0.0
21 14.07 30 км 8/1 1500 м
[Sc Ac cuf]
+14.5 +8.7 68 1015.2 937.0
06 15.07 40 км 4/1 1500 м
[Cu hum Ac cast Ci fib]
+10.5 +7.9 84 1016.9 937.5 +6.2
09 15.07 40 км 6/5 1500 м
[Sc Ci fib]
+19.7 +7.4 45 1013.3 936.6
12 15.07 СВ 3 40 км 9/4 1500 м
[Sc Ac und]
+20.6 +5.1 36 +22 +25 комфорт 1012.8 936.4
15 15.07 ЮВ 3 40 км 9/3 1500 м
[Sc Ac und]
+20.4 +7.6 44 +22 +24 комфорт 1012.9 936.5
18 15.07 СЗ 2 40 км {ливн. осадки} 6/5 1500 м
[Sc Ac und Ci fib]
+17.8 +9.5 58 +18 +18 1013.9 936.7 +21.9 0.0
21 15.07 30 км 4/1 2000 м
[Sc Ac und]
+13.0 +8.3 73 1016.8 938.1
00 16.07 СЗ 2 30 км 1/1 1500 м
[Sc Ac lent Ci fib]
+8.6 +6.4 86 +7 +7 1018.7 938.7
03 16.07 С 1 30 км 1/1 1500 м
[Sc Ci fib]
+6.9 +5.1 88 +6 +6 1019.5 938.9
06 16.07 З 1 30 км 4/1 1500 м
[Cu hum Ci fib]
+10.5 +7.4 81 +10 +14 1018.3 938.8 +5.8
09 16.07 30 км 3/3 1500 м
[Cu hum Ci fib]
+21.1 +6.8 39 1014.1 937.7
12 16.07 40 км 8/6 1500 м
[Cu med, cong Ac lent]
+23.8 +5.6 31 1012.5 936.9
15 16.07 40 км 8/4 1500 м
[Cu med, cong Ac cuf]
+24.8 +4.2 26 1011.3 936.0
18 16.07 С 4 40 км 3/1 2000 м
[Cu hum Ci fib]
+22.4 +5.5 33 +23 +23 комфорт 1012.1 936.1 +25.6
21 16.07 В 1 15 км 3/0
[Ci fib]
+14.4 +6.1 57 +15 +15 1013.9 937.7
00 17.07 З 1 15 км 3/0
[Ci fib]
+8.9 +5.7 80 +8 +8 1018.3 938.4
03 17.07 С 2 20 км 3/0
[Ci fib]
+7.5 +6.4 93 +5 +5 1018.6 938.3
06 17.07 30 км 4/0
[Ci fib]
+12.2 +7.5 73 1016.9 938.0 +6.5
09 17.07 30 км 9/1 1500 м
[Cu hum Ci sp]
+22.7 +6.9 36 1012.2 936.4
12 17.07 СВ 4 40 км 9/1 2000 м
[Cu hum Ac lent Ci sp]
+26.9 +6.0 26 +26 +32 жарко 1009.5 934.8
15 17.07 В 4 40 км 8/3 2000 м
[Cu med, cong Ac cuf Ci ing]
+27.0 +8.4 31 +27 +29 жарко 1008.6 933.9
18 17.07 С 3 30 км в посл. час гроза {ливн. осадки} 9/4 1500 м
[Cb cap Ac cuf Ci ing]
+18.2 +13.3 73 +19 +19 1011.3 934.4 +28.3 1
21 17.07 ЮЗ 3 5000 м слаб. ливневой дождь, в посл. час гроза 9/3 1500 м
[Cb cap Ac cuf Ci ing]
+13.7 +12.6 93 +12 +12 1016.2 937.7
00 18.07 15 км {гроза, ливн. осадки} 8/1 180 м
[St Ac und]
+13.8 +13.0 95 1015.4 937.0 20
03 18.07 Ю 1 10 км {ливн. осадки} 9/9 60 м
[St]
+12.6 +11.6 94 +13 +13 1015.2 936.4
06 18.07 8000 м 9/5 120 м
[St Ac cuf Ci ing]
+13.1 +11.9 92 1015.2 936.7 +12.0 23
09 18.07 25 км 8/1 450 м
[St Ac cuf Ci sp]
+18.1 +12.6 70 1013.7 936.6
12 18.07 С 3 30 км слаб. ливневой дождь 8/1 2000 м
[Cu hum Ac cuf Ci sp]
+23.8 +9.9 41 +25 +33 комфорт 1011.0 935.5 0.0
15 18.07 Ю 5 40 км осадки на расстоянии {ливн. осадки} 8/3 1500 м
[Cb cap Ac cuf Ci sp]
+21.1 +11.0 52 +23 +25 комфорт 1011.8 935.6
18 18.07 Ю 2 40 км {ливн. осадки} 5/3 1500 м
[Cb cap Ac cuf Ci ing]
+19.3 +12.2 63 +21 +21 комфорт 1013.5 936.7 +25.5 0.6
21 18.07 20 км 4/1 2000 м
[Sc diur, vesp Ac cuf Ci ing]
+15.2 +12.2 82 1016.8 938.7
00 19.07 СЗ 1 20 км 4/1 2000 м
[Sc Ci sp]
+10.3 +8.9 91 +10 +10 1019.3 939.7
03 19.07 20 км 4/1 2000 м
[Sc Ac lent Ci sp]
+10.0 +9.3 95 1019.8 940.1
06 19.07 40 км 4/1 2000 м
[Sc Ac As Ci fib]
+12.9 +10.6 86 1019.5 940.5 +9.2
09 19.07 40 км 4/1 1500 м
[Cu hum Ac trans Ci fib]
+21.1 +10.1 49 1016.4 939.8
12 19.07 40 км 6/3 2000 м
[Cb calv Ac trans Ci fib]
+26.4 +5.5 26 1013.7 938.6
15 19.07 ЮЗ 3 40 км 6/3 2000 м
[Cb calv Ac trans Ci fib]
+20.9 +11.8 56 +23 +27 комфорт 1015.0 939.1
18 19.07 40 км 6/1 2000 м
[Cu hum Ac trans Ci fib]
+21.7 +12.7 57 1015.5 939.1 +27.4
21 19.07 З 1 30 км 6/1 2000 м
[Sc Ac trans Ci fib]
+15.8 +13.3 85 +16 +16 1018.7 940.6
00 20.07 20 км 9/1 2000 м
[Sc Ac As Ci fib]
+15.1 +12.5 84 1019.4 941.0
03 20.07 ЮЗ 1 20 км 6/1 1500 м
[Sc Ac As Ci fib]
+13.6 +12.2 91 +14 +14 1019.5 940.7
06 20.07 СЗ 1 30 км 3/1
[Cb calv Ci fib]
+15.0 +12.9 87 +15 +19 1019.4 941.0 +12.0
09 20.07 СВ 1 30 км 4/1 1500 м
[Cu hum Ci fib]
+24.0 +13.4 51 +26 +40 жарко 1015.9 940.1
12 20.07 Ю 4 30 км 6/3 1500 м
[Cu hum Ci fib]
+29.7 +7.9 26 +29 +36 жарко 1013.1 938.8
15 20.07 Ю 2 30 км в посл. час гроза 9/5 1500 м
[Cb cap Ac cuf]
+25.5 +14.8 52 +28 +30 жарко 1014.6 939.2
18 20.07 З 1 30 км в посл. час гроза 9/5 1500 м
[Cb cap Ac cuf Ci ing]
+22.6 +15.8 65 +27 +27 душно 1016.1 939.9 +30.9
21 20.07 ЮЗ 4 15 км {гроза, ливн. осадки} 9/5
[Cb cap Ac cuf Ci ing]
+18.5 +14.6 78 +19 +19 1018.6 941.2
00 21.07 СВ 1 15 км 6/0
[Ac trans Ci fib]
+17.1 +14.2 83 +18 +18 1020.6 942.7 0.0
03 21.07 СЗ 1 15 км 9/3 1500 м
[Sc Ac trans]
+16.6 +14.5 87 +17 +17 1019.8 941.8
06 21.07 25 км 9/1 1500 м
[Sc Ac cast Ci fib]
+18.2 +14.3 78 1020.3 942.7 +16.5 0.0
09 21.07 30 км 9/3 1500 м
[Cu hum Ac cuf Ci fib]
+24.1 +13.4 51 1018.8 942.8
12 21.07 25 км 9/3 1500 м
[Cu hum Ac As Ci fib]
+25.4 +14.2 50 1019.4 943.6

 

Местоположение метеостанции Цельтвег (Австрия): широта 47.20 долгота 14.75 высота над уровнем моря 682 м.

В архиве по умолчанию представлена погода в Цельтвеге за последнюю неделю. Архивные данные за месяц целиком и за предыдущие месяцы, начиная с января 2011 года, Вы можете получить, выбрав интересующий диапазон дат из раскрывающегося списка и нажав кнопку "Ввод!".


*Определитесь, кто Вы:
робот инопланетянин человек

Внимание! Время в таблицах - всемирное. Для получения местного времени необходимо прибавить поправку, которая равна 1 ч.

Смотрите также архив погоды в соседних городах и на ближайших метеорологических станциях:

Погода в Кальванге (Австрия) (24 км)
Погода в Ноймаркте (Австрия) (29 км)
Погода в Кёфлаге (Австрия) (29 км)
Погода в Леобене (Австрия) (33 км)
Погода в Прайтенеге (Австрия) (33 км)
Погода в Пребихле (Австрия) (39 км)
Погода в Мурау (Австрия) (44 км)
Погода в Брукк-ан-дер-Муре (Австрия) (46 км)
Погода в Санкт-Андре (Австрия) (48 км)
Погода в Капфенберге (Австрия) (50 км)

Пояснения к столбцам:

Ветер - указаны скорость ветра в м/с - средняя за 10 мин, порывы в срок и между сроками (в фигурных скобках) и направление, откуда дует ветер: С - северный, СВ - северо-восточный, В - восточный, ЮВ - юго-восточный, Ю - южный, ЮЗ - юго-западный, З - западный, СЗ - северо-западный.
Видимость - горизонтальная дальность видимости в метрах или километрах. При видимости от 1 до 10 км при отсутствии осадков обычно наблюдается дымка, при ухудшении видимости до 1 км и менее - туман. В сухую погоду видимость может ухудшаться дымом, пылью или мглою.
Явления - указаны атмосферные явления, наблюдавшиеся в срок или в последний час перед сроком; фигурными скобками обозначены явления, наблюдавшиеся между сроками (за 1-3 часа до срока); квадратными скобками обозначены град или гололедные отложения с указанием их диаметра в мм.
Облачность - указаны через наклонную черту общая и нижняя облачность в баллах и высота нижней границы облаков в метрах; квадратными скобками обозначены формы облаков: Ci - перистые, Cs - перисто-слоистые, Cc - перисто-кучевые, Ac - высококучевые, As - высокослоистые, Sc - слоисто-кучевые, Ns - слоисто-дождевые, Cu - кучевые, Cb - кучево-дождевые. Подробнее классификацию облаков см. в Атласе облаков (PDF).
T - Температура воздуха - температура, измеренная на высоте 2 м над землей.
Td - Температура точки росы - температура, при понижении до которой содержащийся в воздухе водяной пар достигнет насыщения.
f - Относительная влажность воздуха - влажноcть воздуха, измеренная на высоте 2 м над землей.
Te - Эффективная температура - температура, которую ощущает одетый по сезону человек в тени. Характеристика душности погоды. При расчете учитывается влияние влажности воздуха и скорости ветра на теплоощущения человека.
Tes - Эффективная температура на солнце - температура, которую ощущает человек, с поправкой на солнечный нагрев. Характеристика знойности погоды. Зависит от высоты солнца над горизонтом, облачности и скорости ветра. Ночью, в пасмурную погоду, а также при ветре 12 м/с и более поправка равна нулю.
P - Атмосферное давление - приведенное к уровню моря атмосферное давление.
Po - Атмосферное давление - измеренное на уровне метеостанции атмосферное давление.
Tmin - Минимальная температура - минимум температуры воздуха на высоте 2 м над землей.
Tmax - Максимальная температура - максимум температуры воздуха на высоте 2 м над землей.
R - Количество осадков - Количество выпавших осадков за период времени, мм. При наведении курсора мыши на число - период времени, за который выпало указанное количество осадков.
R24 - Количество осадков - Количество выпавших осадков за 24 часа, мм.
S - Снежный покров - Высота снежного покрова, см. При наведении курсора мыши на число - состояние снежного покрова и степень покрытия местности в баллах.